Time,TemperatureF,DewpointF,PressureIn,WindDirection,WindDirectionDegrees,WindSpeedMPH,WindSpeedGustMPH,Humidity,HourlyPrecipIn,Conditions,Clouds,dailyrainin,SoftwareType,DateUTC
2013-07-17 00:01:00,58.6,52.5,30.01,SW,232,0.0,2.0,80,0.00,,---,0.00,VWS V14.01,2013-07-17 07:01:00,
2013-07-17 00:06:00,58.6,52.5,30.02,SW,231,0.0,2.0,80,0.00,,---,0.00,VWS V14.01,2013-07-17 07:06:00,
2013-07-17 00:11:00,58.6,52.5,30.05,SW,231,2.0,5.0,80,0.00,,---,0.00,VWS V14.01,2013-07-17 07:11:00,
2013-07-17 00:17:00,58.5,52.4,30.03,SW,231,5.0,5.0,80,0.00,,---,0.00,VWS V14.01,2013-07-17 07:17:00,
2013-07-17 00:22:00,58.4,52.3,30.03,SW,232,2.0,6.0,80,0.00,,---,0.00,VWS V14.01,2013-07-17 07:22:00,
2013-07-17 00:27:00,58.3,52.2,30.04,SW,232,3.0,6.0,80,0.00,,---,0.00,VWS V14.01,2013-07-17 07:27:00,
2013-07-17 00:32:00,58.2,52.1,30.01,SW,232,2.0,4.0,80,0.00,,---,0.00,VWS V14.01,2013-07-17 07:32:00,
2013-07-17 00:37:00,58.1,52.0,30.02,WSW,253,2.0,6.0,80,0.00,,---,0.00,VWS V14.01,2013-07-17 07:37:00,
2013-07-17 00:42:00,58.0,51.9,30.04,WSW,250,3.0,7.0,80,0.00,,---,0.00,VWS V14.01,2013-07-17 07:42:00,
2013-07-17 00:47:00,57.8,51.7,30.05,WSW,250,0.0,7.0,80,0.00,,---,0.00,VWS V14.01,2013-07-17 07:47:00,
2013-07-17 00:52:00,57.8,52.3,30.05,NNW,330,4.0,7.0,82,0.00,,---,0.00,VWS V14.01,2013-07-17 07:52:00,
2013-07-17 00:57:00,57.7,51.9,30.03,West,264,3.0,7.0,81,0.00,,---,0.00,VWS V14.01,2013-07-17 07:57:00,
2013-07-17 01:02:00,57.8,52.0,30.02,West,264,2.0,3.0,81,0.00,,---,0.00,VWS V14.01,2013-07-17 08:02:00,
2013-07-17 01:07:00,57.7,51.6,30.01,West,264,1.0,5.0,80,0.00,,---,0.00,VWS V14.01,2013-07-17 08:07:00,
2013-07-17 01:12:00,57.7,51.6,30.03,West,261,0.0,5.0,80,0.00,,---,0.00,VWS V14.01,2013-07-17 08:12:00,
2013-07-17 01:17:00,57.7,51.9,30.01,West,261,1.0,5.0,81,0.00,,---,0.00,VWS V14.01,2013-07-17 08:17:00,
2013-07-17 01:22:00,57.7,51.6,30.04,West,264,1.0,5.0,80,0.00,,---,0.00,VWS V14.01,2013-07-17 08:22:00,
2013-07-17 01:27:00,57.8,52.0,30.05,West,264,1.0,5.0,81,0.00,,---,0.00,VWS V14.01,2013-07-17 08:27:00,
2013-07-17 01:33:00,57.9,51.8,30.05,West,264,1.0,3.0,80,0.00,,---,0.00,VWS V14.01,2013-07-17 08:33:00,
2013-07-17 01:38:00,57.9,51.8,30.04,West,264,2.0,5.0,80,0.00,,---,0.00,VWS V14.01,2013-07-17 08:38:00,
2013-07-17 01:43:00,57.9,51.8,30.01,West,264,1.0,5.0,80,0.00,,---,0.00,VWS V14.01,2013-07-17 08:43:00,
2013-07-17 01:48:00,57.8,51.7,30.04,West,264,0.0,5.0,80,0.00,,---,0.00,VWS V14.01,2013-07-17 08:48:00,
2013-07-17 01:53:00,57.9,51.8,30.05,West,264,0.0,5.0,80,0.00,,---,0.00,VWS V14.01,2013-07-17 08:53:00,
2013-07-17 01:58:00,57.9,52.1,30.02,West,264,0.0,5.0,81,0.00,,---,0.00,VWS V14.01,2013-07-17 08:58:00,
2013-07-17 02:03:00,57.9,51.8,30.06,West,264,2.0,2.0,80,0.00,,---,0.00,VWS V14.01,2013-07-17 09:03:00,
2013-07-17 02:08:00,58.0,51.9,30.04,West,264,2.0,3.0,80,0.00,,---,0.00,VWS V14.01,2013-07-17 09:08:00,
2013-07-17 02:13:00,58.0,51.9,30.04,West,264,1.0,4.0,80,0.00,,---,0.00,VWS V14.01,2013-07-17 09:13:00,
2013-07-17 02:18:00,57.9,51.8,30.02,West,264,1.0,5.0,80,0.00,,---,0.00,VWS V14.01,2013-07-17 09:18:00,
2013-07-17 02:23:00,57.9,51.8,30.03,West,264,0.0,5.0,80,0.00,,---,0.00,VWS V14.01,2013-07-17 09:23:00,
2013-07-17 02:28:00,57.9,52.1,30.04,West,264,4.0,5.0,81,0.00,,---,0.00,VWS V14.01,2013-07-17 09:28:00,
2013-07-17 02:33:00,57.7,51.6,30.02,West,264,1.0,3.0,80,0.00,,---,0.00,VWS V14.01,2013-07-17 09:33:00,
2013-07-17 02:38:00,57.7,51.9,30.02,West,264,1.0,3.0,81,0.00,,---,0.00,VWS V14.01,2013-07-17 09:38:00,
2013-07-17 02:43:00,57.7,51.6,30.05,West,264,0.0,4.0,80,0.00,,---,0.00,VWS V14.01,2013-07-17 09:43:00,
2013-07-17 02:48:00,57.7,51.6,30.02,West,264,1.0,4.0,80,0.00,,---,0.00,VWS V14.01,2013-07-17 09:48:00,
2013-07-17 02:53:00,57.7,51.6,30.04,West,264,0.0,4.0,80,0.00,,---,0.00,VWS V14.01,2013-07-17 09:53:00,
2013-07-17 02:59:00,57.7,51.6,30.04,West,264,0.0,4.0,80,0.00,,---,0.00,VWS V14.01,2013-07-17 09:59:00,
2013-07-17 03:04:00,57.7,51.9,30.04,West,264,0.0,2.0,81,0.00,,---,0.00,VWS V14.01,2013-07-17 10:04:00,
2013-07-17 03:09:00,57.7,51.9,30.03,West,264,1.0,2.0,81,0.00,,---,0.00,VWS V14.01,2013-07-17 10:09:00,
2013-07-17 03:14:00,57.8,51.7,30.03,West,264,0.0,3.0,80,0.00,,---,0.00,VWS V14.01,2013-07-17 10:14:00,
2013-07-17 03:19:00,57.9,51.8,30.04,West,264,0.0,3.0,80,0.00,,---,0.00,VWS V14.01,2013-07-17 10:19:00,
2013-07-17 03:24:00,57.9,51.8,30.03,West,264,1.0,3.0,80,0.00,,---,0.00,VWS V14.01,2013-07-17 10:24:00,
2013-07-17 03:29:00,57.9,51.8,30.04,West,264,0.0,3.0,80,0.00,,---,0.00,VWS V14.01,2013-07-17 10:29:00,
2013-07-17 03:34:00,57.9,51.8,30.05,West,264,0.0,3.0,80,0.00,,---,0.00,VWS V14.01,2013-07-17 10:34:00,
2013-07-17 03:39:00,57.9,52.1,30.03,West,264,0.0,3.0,81,0.00,,---,0.00,VWS V14.01,2013-07-17 10:39:00,
2013-07-17 03:44:00,58.0,51.9,30.03,West,264,1.0,5.0,80,0.00,,---,0.00,VWS V14.01,2013-07-17 10:44:00,
2013-07-17 03:49:00,57.9,52.1,30.04,West,264,0.0,5.0,81,0.00,,---,0.00,VWS V14.01,2013-07-17 10:49:00,
2013-07-17 03:54:00,57.9,51.8,30.03,West,264,1.0,5.0,80,0.00,,---,0.00,VWS V14.01,2013-07-17 10:54:00,
2013-07-17 03:59:00,57.9,52.1,30.06,West,264,0.0,5.0,81,0.00,,---,0.00,VWS V14.01,2013-07-17 10:59:00,
2013-07-17 04:04:00,57.8,52.0,30.04,West,264,6.0,6.0,81,0.00,,---,0.00,VWS V14.01,2013-07-17 11:04:00,
2013-07-17 04:10:00,57.9,52.1,30.06,West,264,1.0,6.0,81,0.00,,---,0.00,VWS V14.01,2013-07-17 11:10:00,
2013-07-17 04:15:00,57.9,51.8,30.03,West,264,4.0,6.0,80,0.00,,---,0.00,VWS V14.01,2013-07-17 11:15:00,
2013-07-17 04:20:00,57.9,52.1,30.03,West,264,3.0,6.0,81,0.00,,---,0.00,VWS V14.01,2013-07-17 11:20:00,
2013-07-17 04:25:00,57.9,52.1,30.04,West,264,0.0,6.0,81,0.00,,---,0.00,VWS V14.01,2013-07-17 11:25:00,
2013-07-17 04:30:00,57.9,52.1,30.04,West,264,1.0,2.0,81,0.00,,---,0.00,VWS V14.01,2013-07-17 11:30:00,
2013-07-17 04:35:00,57.9,52.1,30.02,West,264,3.0,3.0,81,0.00,,---,0.00,VWS V14.01,2013-07-17 11:35:00,
2013-07-17 04:40:00,57.8,52.3,30.04,West,264,0.0,4.0,82,0.00,,---,0.00,VWS V14.01,2013-07-17 11:40:00,
2013-07-17 04:45:00,57.7,51.9,30.03,West,264,4.0,5.0,81,0.00,,---,0.00,VWS V14.01,2013-07-17 11:45:00,
2013-07-17 04:50:00,57.7,52.2,30.01,West,259,2.0,5.0,82,0.00,,---,0.00,VWS V14.01,2013-07-17 11:50:00,
2013-07-17 04:55:00,57.7,52.2,30.06,West,259,3.0,5.0,82,0.00,,---,0.00,VWS V14.01,2013-07-17 11:55:00,
2013-07-17 05:00:00,57.7,52.2,30.01,West,259,0.0,1.0,82,0.00,,---,0.00,VWS V14.01,2013-07-17 12:00:00,
2013-07-17 05:05:00,57.6,52.2,30.03,West,259,0.0,4.0,82,0.00,,---,0.00,VWS V14.01,2013-07-17 12:05:00,
2013-07-17 05:10:00,57.6,52.2,30.05,West,259,2.0,4.0,82,0.00,,---,0.00,VWS V14.01,2013-07-17 12:10:00,
2013-07-17 05:15:00,57.6,52.2,30.05,West,259,0.0,4.0,82,0.00,,---,0.00,VWS V14.01,2013-07-17 12:15:00,
2013-07-17 05:20:00,57.6,52.5,30.04,West,259,1.0,4.0,83,0.00,,---,0.00,VWS V14.01,2013-07-17 12:20:00,
2013-07-17 05:25:00,57.6,52.2,30.05,West,259,1.0,4.0,82,0.00,,---,0.00,VWS V14.01,2013-07-17 12:25:00,
2013-07-17 05:31:00,57.6,52.2,30.04,West,259,0.0,6.0,82,0.00,,---,0.00,VWS V14.01,2013-07-17 12:31:00,
2013-07-17 05:36:00,57.6,52.5,30.06,West,259,0.0,6.0,83,0.00,,---,0.00,VWS V14.01,2013-07-17 12:36:00,
2013-07-17 05:41:00,57.6,52.5,30.03,West,259,0.0,6.0,83,0.00,,---,0.00,VWS V14.01,2013-07-17 12:41:00,
2013-07-17 05:46:00,57.6,52.2,30.05,West,259,0.0,6.0,82,0.00,,---,0.00,VWS V14.01,2013-07-17 12:46:00,
2013-07-17 05:51:00,57.7,52.6,30.05,West,259,0.0,6.0,83,0.00,,---,0.00,VWS V14.01,2013-07-17 12:51:00,
2013-07-17 05:56:00,57.7,52.6,30.07,West,259,0.0,6.0,83,0.00,,---,0.00,VWS V14.01,2013-07-17 12:56:00,
2013-07-17 06:01:00,57.6,52.5,30.04,West,259,0.0,2.0,83,0.00,,---,0.00,VWS V14.01,2013-07-17 13:01:00,
2013-07-17 06:06:00,57.8,52.3,30.05,West,259,0.0,3.0,82,0.00,,---,0.00,VWS V14.01,2013-07-17 13:06:00,
2013-07-17 06:11:00,57.7,52.2,30.04,West,259,0.0,3.0,82,0.00,,---,0.00,VWS V14.01,2013-07-17 13:11:00,
2013-07-17 06:16:00,57.8,52.3,30.06,West,259,0.0,3.0,82,0.00,,---,0.00,VWS V14.01,2013-07-17 13:16:00,
2013-07-17 06:21:00,57.7,52.2,30.05,West,259,0.0,3.0,82,0.00,,---,0.00,VWS V14.01,2013-07-17 13:21:00,
2013-07-17 06:26:00,57.9,52.5,30.05,West,259,0.0,3.0,82,0.00,,---,0.00,VWS V14.01,2013-07-17 13:26:00,
2013-07-17 06:31:00,57.9,52.5,30.04,West,259,3.0,3.0,82,0.00,,---,0.00,VWS V14.01,2013-07-17 13:31:00,
2013-07-17 06:36:00,57.9,52.5,30.04,West,259,0.0,3.0,82,0.00,,---,0.00,VWS V14.01,2013-07-17 13:36:00,
2013-07-17 06:42:00,57.9,52.5,30.07,West,259,1.0,3.0,82,0.00,,---,0.00,VWS V14.01,2013-07-17 13:42:00,
2013-07-17 06:47:00,57.9,52.5,30.06,West,259,0.0,3.0,82,0.00,,---,0.00,VWS V14.01,2013-07-17 13:47:00,
2013-07-17 06:52:00,57.9,52.5,30.07,West,259,1.0,3.0,82,0.00,,---,0.00,VWS V14.01,2013-07-17 13:52:00,
2013-07-17 06:57:00,57.9,52.5,30.05,West,259,0.0,3.0,82,0.00,,---,0.00,VWS V14.01,2013-07-17 13:57:00,
2013-07-17 07:02:00,58.1,53.0,30.07,West,259,0.0,3.0,83,0.00,,---,0.00,VWS V14.01,2013-07-17 14:02:00,
2013-07-17 07:07:00,58.0,52.9,30.06,West,259,0.0,3.0,83,0.00,,---,0.00,VWS V14.01,2013-07-17 14:07:00,
2013-07-17 07:12:00,58.2,52.7,30.04,West,259,0.0,3.0,82,0.00,,---,0.00,VWS V14.01,2013-07-17 14:12:00,
2013-07-17 07:17:00,58.1,52.6,30.05,West,259,0.0,4.0,82,0.00,,---,0.00,VWS V14.01,2013-07-17 14:17:00,
2013-07-17 07:22:00,58.2,52.7,30.06,West,259,0.0,4.0,82,0.00,,---,0.00,VWS V14.01,2013-07-17 14:22:00,
2013-07-17 07:27:00,58.2,52.7,30.06,West,259,0.0,4.0,82,0.00,,---,0.00,VWS V14.01,2013-07-17 14:27:00,
2013-07-17 07:32:00,58.2,52.7,30.07,West,259,1.0,2.0,82,0.00,,---,0.00,VWS V14.01,2013-07-17 14:32:00,
2013-07-17 07:37:00,58.2,52.7,30.08,NW,322,0.0,5.0,82,0.00,,---,0.00,VWS V14.01,2013-07-17 14:37:00,
2013-07-17 07:42:00,58.2,52.7,30.06,NW,322,2.0,5.0,82,0.00,,---,0.00,VWS V14.01,2013-07-17 14:42:00,
2013-07-17 07:47:00,58.2,52.7,30.08,NW,322,5.0,6.0,82,0.00,,---,0.00,VWS V14.01,2013-07-17 14:47:00,
2013-07-17 07:53:00,58.0,52.5,30.07,NW,323,3.0,6.0,82,0.00,,---,0.00,VWS V14.01,2013-07-17 14:53:00,
2013-07-17 07:58:00,57.7,52.2,30.06,NW,325,0.0,6.0,82,0.00,,---,0.00,VWS V14.01,2013-07-17 14:58:00,
2013-07-17 08:03:00,57.7,52.6,30.07,NW,325,0.0,3.0,83,0.00,,---,0.00,VWS V14.01,2013-07-17 15:03:00,
2013-07-17 08:08:00,57.9,52.8,30.08,NW,324,0.0,3.0,83,0.00,,---,0.00,VWS V14.01,2013-07-17 15:08:00,
2013-07-17 08:13:00,57.9,52.5,30.08,NW,308,2.0,5.0,82,0.00,,---,0.00,VWS V14.01,2013-07-17 15:13:00,
2013-07-17 08:18:00,57.9,52.5,30.07,NW,308,2.0,5.0,82,0.00,,---,0.00,VWS V14.01,2013-07-17 15:18:00,
2013-07-17 08:23:00,57.7,52.2,30.09,NW,308,1.0,5.0,82,0.00,,---,0.00,VWS V14.01,2013-07-17 15:23:00,
2013-07-17 08:28:00,57.7,52.2,30.06,NW,308,0.0,5.0,82,0.00,,---,0.00,VWS V14.01,2013-07-17 15:28:00,
2013-07-17 08:33:00,57.9,52.8,30.08,NW,308,1.0,3.0,83,0.00,,---,0.00,VWS V14.01,2013-07-17 15:33:00,
2013-07-17 08:38:00,58.1,53.0,30.09,NW,308,1.0,5.0,83,0.00,,---,0.00,VWS V14.01,2013-07-17 15:38:00,
2013-07-17 08:43:00,58.2,53.1,30.08,NW,308,0.0,5.0,83,0.00,,---,0.00,VWS V14.01,2013-07-17 15:43:00,
2013-07-17 08:48:00,58.2,52.7,30.11,NW,308,0.0,5.0,82,0.00,,---,0.00,VWS V14.01,2013-07-17 15:48:00,
2013-07-17 08:53:00,58.3,52.8,30.10,NW,308,0.0,5.0,82,0.00,,---,0.00,VWS V14.01,2013-07-17 15:53:00,
2013-07-17 08:58:00,58.5,53.0,30.10,NW,308,0.0,5.0,82,0.00,,---,0.00,VWS V14.01,2013-07-17 15:58:00,
2013-07-17 09:04:00,58.6,53.1,30.09,NW,308,0.0,2.0,82,0.00,,---,0.00,VWS V14.01,2013-07-17 16:04:00,
2013-07-17 09:09:00,58.6,52.8,30.11,NW,308,1.0,2.0,81,0.00,,---,0.00,VWS V14.01,2013-07-17 16:09:00,
2013-07-17 09:14:00,58.8,53.0,30.11,NW,308,1.0,3.0,81,0.00,,---,0.00,VWS V14.01,2013-07-17 16:14:00,
2013-07-17 09:19:00,58.8,53.0,30.09,NW,308,0.0,3.0,81,0.00,,---,0.00,VWS V14.01,2013-07-17 16:19:00,
2013-07-17 09:24:00,59.1,53.3,30.07,NW,308,1.0,5.0,81,0.00,,---,0.00,VWS V14.01,2013-07-17 16:24:00,
2013-07-17 09:29:00,59.3,53.1,30.08,NW,308,1.0,5.0,80,0.00,,---,0.00,VWS V14.01,2013-07-17 16:29:00,
2013-07-17 09:34:00,59.4,53.6,30.09,NW,308,3.0,4.0,81,0.00,,---,0.00,VWS V14.01,2013-07-17 16:34:00,
2013-07-17 09:39:00,59.6,53.1,30.10,NW,308,0.0,4.0,79,0.00,,---,0.00,VWS V14.01,2013-07-17 16:39:00,
2013-07-17 09:44:00,59.7,53.2,30.09,NW,319,5.0,5.0,79,0.00,,---,0.00,VWS V14.01,2013-07-17 16:44:00,
2013-07-17 09:49:00,60.1,54.3,30.07,NNW,333,1.0,5.0,81,0.00,,---,0.00,VWS V14.01,2013-07-17 16:49:00,
2013-07-17 09:54:00,60.3,53.8,30.11,NNW,333,2.0,5.0,79,0.00,,---,0.00,VWS V14.01,2013-07-17 16:54:00,
2013-07-17 09:59:00,60.5,53.6,30.09,NNW,333,0.0,5.0,78,0.00,,---,0.00,VWS V14.01,2013-07-17 16:59:00,
2013-07-17 10:04:00,60.7,53.8,30.08,NNW,333,1.0,3.0,78,0.00,,---,0.00,VWS V14.01,2013-07-17 17:04:00,
2013-07-17 10:09:00,60.8,54.3,30.08,NNW,333,1.0,4.0,79,0.00,,---,0.00,VWS V14.01,2013-07-17 17:09:00,
2013-07-17 10:15:00,61.1,53.5,30.08,NNW,333,0.0,4.0,76,0.00,,---,0.00,VWS V14.01,2013-07-17 17:15:00,
2013-07-17 10:20:00,61.3,54.0,30.07,NNW,333,0.0,4.0,77,0.00,,---,0.00,VWS V14.01,2013-07-17 17:20:00,
2013-07-17 10:25:00,61.4,53.8,30.10,NNW,333,1.0,4.0,76,0.00,,---,0.00,VWS V14.01,2013-07-17 17:25:00,
2013-07-17 10:30:00,61.8,54.2,30.10,NNW,333,2.0,3.0,76,0.00,,---,0.00,VWS V14.01,2013-07-17 17:30:00,
2013-07-17 10:35:00,62.0,54.0,30.08,NNW,333,1.0,4.0,75,0.00,,---,0.00,VWS V14.01,2013-07-17 17:35:00,
2013-07-17 10:40:00,62.1,54.1,30.08,NNW,333,2.0,4.0,75,0.00,,---,0.00,VWS V14.01,2013-07-17 17:40:00,
2013-07-17 10:45:00,62.3,54.3,30.09,NNW,333,2.0,5.0,75,0.00,,---,0.00,VWS V14.01,2013-07-17 17:45:00,
2013-07-17 10:50:00,62.6,54.2,30.08,NNW,337,3.0,7.0,74,0.00,,---,0.00,VWS V14.01,2013-07-17 17:50:00,
2013-07-17 10:55:00,63.0,54.6,30.06,NW,326,5.0,7.0,74,0.00,,---,0.00,VWS V14.01,2013-07-17 17:55:00,
2013-07-17 11:00:00,63.4,54.6,30.06,NW,324,2.0,5.0,73,0.00,,---,0.00,VWS V14.01,2013-07-17 18:00:00,
2013-07-17 11:05:00,63.5,54.3,30.10,NW,325,2.0,5.0,72,0.00,,---,0.00,VWS V14.01,2013-07-17 18:05:00,
2013-07-17 11:10:00,64.0,54.4,30.07,NW,324,1.0,5.0,71,0.00,,---,0.00,VWS V14.01,2013-07-17 18:10:00,
2013-07-17 11:15:00,64.3,54.3,30.07,NW,320,2.0,5.0,70,0.00,,---,0.00,VWS V14.01,2013-07-17 18:15:00,
2013-07-17 11:20:00,64.4,54.4,30.08,NW,322,5.0,6.0,70,0.00,,---,0.00,VWS V14.01,2013-07-17 18:20:00,
2013-07-17 11:26:00,65.0,55.0,30.09,North,354,5.0,7.0,70,0.00,,---,0.00,VWS V14.01,2013-07-17 18:26:00,
2013-07-17 11:31:00,65.3,54.5,30.09,NNW,339,2.0,5.0,68,0.00,,---,0.00,VWS V14.01,2013-07-17 18:31:00,
2013-07-17 11:36:00,65.4,54.2,30.05,NNW,340,2.0,5.0,67,0.00,,---,0.00,VWS V14.01,2013-07-17 18:36:00,
2013-07-17 11:41:00,66.1,55.7,30.07,NNW,346,5.0,5.0,69,0.00,,---,0.00,VWS V14.01,2013-07-17 18:41:00,
2013-07-17 11:46:00,66.4,55.1,30.08,NNW,347,1.0,5.0,67,0.00,,---,0.00,VWS V14.01,2013-07-17 18:46:00,
2013-07-17 11:51:00,67.0,55.7,30.08,NNW,347,0.0,5.0,67,0.00,,---,0.00,VWS V14.01,2013-07-17 18:51:00,
2013-07-17 11:56:00,67.4,55.2,30.07,North,350,4.0,5.0,65,0.00,,---,0.00,VWS V14.01,2013-07-17 18:56:00,
2013-07-17 12:01:00,68.1,56.3,30.08,North,351,2.0,3.0,66,0.00,,---,0.00,VWS V14.01,2013-07-17 19:01:00,
2013-07-17 12:06:00,68.5,55.4,30.08,North,0,3.0,6.0,63,0.00,,---,0.00,VWS V14.01,2013-07-17 19:06:00,
2013-07-17 12:11:00,68.8,55.7,30.07,NW,325,3.0,6.0,63,0.00,,---,0.00,VWS V14.01,2013-07-17 19:11:00,
2013-07-17 12:16:00,69.5,55.5,30.08,North,3,3.0,6.0,61,0.00,,---,0.00,VWS V14.01,2013-07-17 19:16:00,
2013-07-17 12:21:00,70.0,56.4,30.08,North,359,3.0,6.0,62,0.00,,---,0.00,VWS V14.01,2013-07-17 19:21:00,
2013-07-17 12:26:00,70.2,55.7,30.07,NNW,344,4.0,6.0,60,0.00,,---,0.00,VWS V14.01,2013-07-17 19:26:00,
2013-07-17 12:32:00,70.5,56.0,30.08,NNW,334,4.0,6.0,60,0.00,,---,0.00,VWS V14.01,2013-07-17 19:32:00,
2013-07-17 12:37:00,70.6,57.0,30.06,North,359,3.0,6.0,62,0.00,,---,0.00,VWS V14.01,2013-07-17 19:37:00,
2013-07-17 12:42:00,71.2,56.6,30.09,NW,317,4.0,6.0,60,0.00,,---,0.00,VWS V14.01,2013-07-17 19:42:00,
2013-07-17 12:47:00,71.5,56.4,30.09,WNW,297,2.0,7.0,59,0.00,,---,0.00,VWS V14.01,2013-07-17 19:47:00,
2013-07-17 12:52:00,71.8,56.2,30.06,NNW,338,3.0,9.0,58,0.00,,---,0.00,VWS V14.01,2013-07-17 19:52:00,
2013-07-17 12:57:00,72.2,56.6,30.08,West,270,2.0,9.0,58,0.00,,---,0.00,VWS V14.01,2013-07-17 19:57:00,
2013-07-17 13:02:00,72.4,56.3,30.06,NW,310,3.0,5.0,57,0.00,,---,0.00,VWS V14.01,2013-07-17 20:02:00,
2013-07-17 13:07:00,72.6,57.0,30.04,NNW,331,3.0,5.0,58,0.00,,---,0.00,VWS V14.01,2013-07-17 20:07:00,
2013-07-17 13:12:00,72.9,57.3,30.06,NW,326,1.0,6.0,58,0.00,,---,0.00,VWS V14.01,2013-07-17 20:12:00,
2013-07-17 13:17:00,73.2,57.5,30.09,WSW,247,3.0,6.0,58,0.00,,---,0.00,VWS V14.01,2013-07-17 20:17:00,
2013-07-17 13:22:00,73.8,57.1,30.05,NNW,346,1.0,7.0,56,0.00,,---,0.00,VWS V14.01,2013-07-17 20:22:00,
2013-07-17 13:27:00,74.2,58.0,30.04,NW,309,3.0,7.0,57,0.00,,---,0.00,VWS V14.01,2013-07-17 20:27:00,
2013-07-17 13:32:00,74.4,56.7,30.05,West,281,1.0,6.0,54,0.00,,---,0.00,VWS V14.01,2013-07-17 20:32:00,
2013-07-17 13:38:00,75.0,57.2,30.05,WNW,286,2.0,7.0,54,0.00,,---,0.00,VWS V14.01,2013-07-17 20:38:00,
2013-07-17 13:43:00,75.1,57.3,30.09,WNW,287,2.0,7.0,54,0.00,,---,0.00,VWS V14.01,2013-07-17 20:43:00,
2013-07-17 13:48:00,75.5,57.2,30.06,North,359,2.0,7.0,53,0.00,,---,0.00,VWS V14.01,2013-07-17 20:48:00,
2013-07-17 13:53:00,75.6,56.8,30.03,NNW,344,2.0,8.0,52,0.00,,---,0.00,VWS V14.01,2013-07-17 20:53:00,
2013-07-17 13:58:00,76.0,57.1,30.06,North,354,6.0,8.0,52,0.00,,---,0.00,VWS V14.01,2013-07-17 20:58:00,
2013-07-17 14:03:00,75.9,57.6,30.07,NNW,341,2.0,9.0,53,0.00,,---,0.00,VWS V14.01,2013-07-17 21:03:00,
2013-07-17 14:08:00,76.2,56.8,30.06,NW,318,5.0,9.0,51,0.00,,---,0.00,VWS V14.01,2013-07-17 21:08:00,
2013-07-17 14:13:00,76.6,58.2,30.03,West,280,3.0,9.0,53,0.00,,---,0.00,VWS V14.01,2013-07-17 21:13:00,
2013-07-17 14:18:00,76.9,56.9,30.04,NNW,335,2.0,9.0,50,0.00,,---,0.00,VWS V14.01,2013-07-17 21:18:00,
2013-07-17 14:23:00,76.9,56.9,30.03,North,357,3.0,9.0,50,0.00,,---,0.00,VWS V14.01,2013-07-17 21:23:00,
2013-07-17 14:28:00,77.3,56.1,30.07,NW,320,4.0,9.0,48,0.00,,---,0.00,VWS V14.01,2013-07-17 21:28:00,
2013-07-17 14:33:00,77.4,55.6,30.08,NW,309,6.0,7.0,47,0.00,,---,0.00,VWS V14.01,2013-07-17 21:33:00,
2013-07-17 14:38:00,77.4,56.2,30.04,North,9,0.0,7.0,48,0.00,,---,0.00,VWS V14.01,2013-07-17 21:38:00,
2013-07-17 14:43:00,77.6,56.4,30.04,WSW,246,6.0,7.0,48,0.00,,---,0.00,VWS V14.01,2013-07-17 21:43:00,
2013-07-17 14:49:00,77.8,56.6,30.04,NNW,337,2.0,7.0,48,0.00,,---,0.00,VWS V14.01,2013-07-17 21:49:00,
2013-07-17 14:54:00,78.1,56.2,30.02,WNW,286,3.0,7.0,47,0.00,,---,0.00,VWS V14.01,2013-07-17 21:54:00,
2013-07-17 14:59:00,78.3,56.4,30.03,WNW,293,2.0,7.0,47,0.00,,---,0.00,VWS V14.01,2013-07-17 21:59:00,
2013-07-17 15:04:00,78.3,55.8,30.04,North,354,2.0,8.0,46,0.00,,---,0.00,VWS V14.01,2013-07-17 22:04:00,
2013-07-17 15:09:00,78.6,56.7,30.07,NNW,338,3.0,8.0,47,0.00,,---,0.00,VWS V14.01,2013-07-17 22:09:00,
2013-07-17 15:14:00,79.0,57.7,30.03,NW,319,4.0,8.0,48,0.00,,---,0.00,VWS V14.01,2013-07-17 22:14:00,
2013-07-17 15:19:00,78.9,57.0,30.06,NNW,342,4.0,8.0,47,0.00,,---,0.00,VWS V14.01,2013-07-17 22:19:00,
2013-07-17 15:24:00,79.1,56.6,30.04,North,357,2.0,9.0,46,0.00,,---,0.00,VWS V14.01,2013-07-17 22:24:00,
2013-07-17 15:29:00,79.5,56.9,30.03,North,9,2.0,9.0,46,0.00,,---,0.00,VWS V14.01,2013-07-17 22:29:00,
2013-07-17 15:34:00,79.4,56.8,30.04,North,352,3.0,8.0,46,0.00,,---,0.00,VWS V14.01,2013-07-17 22:34:00,
2013-07-17 15:39:00,79.7,55.9,30.04,NNW,342,2.0,8.0,44,0.00,,---,0.00,VWS V14.01,2013-07-17 22:39:00,
2013-07-17 15:44:00,79.5,56.3,30.03,NW,317,1.0,8.0,45,0.00,,---,0.00,VWS V14.01,2013-07-17 22:44:00,
2013-07-17 15:50:00,79.6,55.8,30.03,NNW,334,3.0,8.0,44,0.00,,---,0.00,VWS V14.01,2013-07-17 22:50:00,
2013-07-17 15:55:00,79.4,55.6,30.03,West,275,4.0,8.0,44,0.00,,---,0.00,VWS V14.01,2013-07-17 22:55:00,
2013-07-17 16:00:00,79.5,56.9,30.04,NW,311,3.0,4.0,46,0.00,,---,0.00,VWS V14.01,2013-07-17 23:00:00,
2013-07-17 16:05:00,79.6,57.0,30.03,WNW,288,7.0,8.0,46,0.00,,---,0.00,VWS V14.01,2013-07-17 23:05:00,
2013-07-17 16:10:00,79.8,56.0,30.03,SW,221,4.0,8.0,44,0.00,,---,0.00,VWS V14.01,2013-07-17 23:10:00,
2013-07-17 16:15:00,79.8,55.3,30.03,West,269,0.0,8.0,43,0.00,,---,0.00,VWS V14.01,2013-07-17 23:15:00,
2013-07-17 16:20:00,79.8,56.0,30.04,NNW,341,4.0,8.0,44,0.00,,---,0.00,VWS V14.01,2013-07-17 23:20:00,
2013-07-17 16:25:00,79.6,55.2,30.03,SSW,204,2.0,8.0,43,0.00,,---,0.00,VWS V14.01,2013-07-17 23:25:00,
2013-07-17 16:30:00,79.4,55.0,30.02,NW,314,4.0,4.0,43,0.00,,---,0.00,VWS V14.01,2013-07-17 23:30:00,
2013-07-17 16:35:00,79.3,55.5,30.01,WSW,246,5.0,8.0,44,0.00,,---,0.00,VWS V14.01,2013-07-17 23:35:00,
2013-07-17 16:40:00,79.2,55.4,30.04,WNW,291,4.0,8.0,44,0.00,,---,0.00,VWS V14.01,2013-07-17 23:40:00,
2013-07-17 16:45:00,78.8,55.7,30.04,NW,310,7.0,8.0,45,0.00,,---,0.00,VWS V14.01,2013-07-17 23:45:00,
2013-07-17 16:50:00,78.5,56.0,30.04,WNW,302,2.0,9.0,46,0.00,,---,0.00,VWS V14.01,2013-07-17 23:50:00,
2013-07-17 16:55:00,78.5,55.4,30.01,WNW,291,4.0,10.0,45,0.00,,---,0.00,VWS V14.01,2013-07-17 23:55:00,
2013-07-17 17:01:00,78.5,55.4,30.06,WNW,283,4.0,7.0,45,0.00,,---,0.00,VWS V14.01,2013-07-18 00:01:00,
2013-07-17 17:06:00,78.3,55.8,30.03,WNW,288,1.0,8.0,46,0.00,,---,0.00,VWS V14.01,2013-07-18 00:06:00,
2013-07-17 17:11:00,78.6,56.7,30.05,West,263,4.0,8.0,47,0.00,,---,0.00,VWS V14.01,2013-07-18 00:11:00,
2013-07-17 17:16:00,78.4,55.9,30.01,West,270,2.0,8.0,46,0.00,,---,0.00,VWS V14.01,2013-07-18 00:16:00,
2013-07-17 17:21:00,78.0,55.0,30.02,WNW,295,5.0,9.0,45,0.00,,---,0.00,VWS V14.01,2013-07-18 00:21:00,
2013-07-17 17:26:00,77.7,55.9,29.99,West,264,2.0,10.0,47,0.00,,---,0.00,VWS V14.01,2013-07-18 00:26:00,
2013-07-17 17:31:00,77.8,55.4,30.03,SW,232,3.0,7.0,46,0.00,,---,0.00,VWS V14.01,2013-07-18 00:31:00,
2013-07-17 17:36:00,77.6,56.4,29.99,West,279,1.0,9.0,48,0.00,,---,0.00,VWS V14.01,2013-07-18 00:36:00,
2013-07-17 17:41:00,77.7,55.9,30.01,NNW,330,4.0,9.0,47,0.00,,---,0.00,VWS V14.01,2013-07-18 00:41:00,
2013-07-17 17:46:00,77.4,55.6,30.02,NNW,339,4.0,9.0,47,0.00,,---,0.00,VWS V14.01,2013-07-18 00:46:00,
2013-07-17 17:51:00,77.6,55.8,30.01,NNW,332,4.0,9.0,47,0.00,,---,0.00,VWS V14.01,2013-07-18 00:51:00,
2013-07-17 17:56:00,77.4,55.6,30.02,NNW,333,4.0,9.0,47,0.00,,---,0.00,VWS V14.01,2013-07-18 00:56:00,
2013-07-17 18:01:00,77.2,54.8,29.99,NNW,346,4.0,8.0,46,0.00,,---,0.00,VWS V14.01,2013-07-18 01:01:00,
2013-07-17 18:06:00,76.9,55.2,30.02,NW,315,2.0,9.0,47,0.00,,---,0.00,VWS V14.01,2013-07-18 01:06:00,
2013-07-17 18:11:00,76.6,55.5,30.03,NW,321,5.0,9.0,48,0.00,,---,0.00,VWS V14.01,2013-07-18 01:11:00,
2013-07-17 18:17:00,76.4,54.7,30.03,NNE,19,2.0,9.0,47,0.00,,---,0.00,VWS V14.01,2013-07-18 01:17:00,
2013-07-17 18:22:00,76.2,54.5,30.01,NNW,334,2.0,9.0,47,0.00,,---,0.00,VWS V14.01,2013-07-18 01:22:00,
2013-07-17 18:27:00,76.2,55.7,30.02,NNW,334,4.0,9.0,49,0.00,,---,0.00,VWS V14.01,2013-07-18 01:27:00,
2013-07-17 18:32:00,76.3,55.8,30.01,North,1,2.0,5.0,49,0.00,,---,0.00,VWS V14.01,2013-07-18 01:32:00,
2013-07-17 18:37:00,75.9,54.8,30.02,NW,315,3.0,8.0,48,0.00,,---,0.00,VWS V14.01,2013-07-18 01:37:00,
2013-07-17 18:42:00,75.3,54.8,29.99,WNW,290,2.0,8.0,49,0.00,,---,0.00,VWS V14.01,2013-07-18 01:42:00,
2013-07-17 18:47:00,74.9,54.5,30.04,WNW,289,8.0,8.0,49,0.00,,---,0.00,VWS V14.01,2013-07-18 01:47:00,
2013-07-17 18:52:00,74.3,54.5,29.99,West,270,5.0,8.0,50,0.00,,---,0.00,VWS V14.01,2013-07-18 01:52:00,
2013-07-17 18:57:00,73.9,54.7,30.02,NW,310,3.0,8.0,51,0.00,,---,0.00,VWS V14.01,2013-07-18 01:57:00,
2013-07-17 19:02:00,73.2,54.5,30.01,NNW,336,6.0,9.0,52,0.00,,---,0.00,VWS V14.01,2013-07-18 02:02:00,
2013-07-17 19:07:00,72.6,54.5,30.02,NNW,347,2.0,9.0,53,0.00,,---,0.00,VWS V14.01,2013-07-18 02:07:00,
2013-07-17 19:12:00,72.2,54.7,29.99,WNW,299,4.0,9.0,54,0.00,,---,0.00,VWS V14.01,2013-07-18 02:12:00,
2013-07-17 19:16:00,71.9,54.4,30.01,NW,322,0.0,9.0,54,0.00,,---,0.00,VWS V14.01,2013-07-18 02:16:00,
2013-07-17 19:22:00,71.7,54.2,30.00,NNW,340,2.0,9.0,54,0.00,,---,0.00,VWS V14.01,2013-07-18 02:22:00,
2013-07-17 19:27:00,71.3,54.3,30.01,West,277,5.0,9.0,55,0.00,,---,0.00,VWS V14.01,2013-07-18 02:27:00,
2013-07-17 19:32:00,71.0,54.0,30.02,North,1,3.0,6.0,55,0.00,,---,0.00,VWS V14.01,2013-07-18 02:32:00,
2013-07-17 19:37:00,70.7,54.2,30.02,NNW,342,2.0,8.0,56,0.00,,---,0.00,VWS V14.01,2013-07-18 02:37:00,
2013-07-17 19:42:00,70.3,53.9,30.00,NW,323,4.0,8.0,56,0.00,,---,0.00,VWS V14.01,2013-07-18 02:42:00,
2013-07-17 19:47:00,69.8,53.9,30.04,NNW,332,1.0,8.0,57,0.00,,---,0.00,VWS V14.01,2013-07-18 02:47:00,
2013-07-17 19:52:00,69.4,54.0,30.00,NNW,334,5.0,8.0,58,0.00,,---,0.00,VWS V14.01,2013-07-18 02:52:00,
2013-07-17 19:57:00,68.7,53.8,30.03,NNW,330,1.0,8.0,59,0.00,,---,0.00,VWS V14.01,2013-07-18 02:57:00,
2013-07-17 20:02:00,68.2,53.3,30.02,North,358,4.0,6.0,59,0.00,,---,0.00,VWS V14.01,2013-07-18 03:02:00,
2013-07-17 20:07:00,67.7,53.8,30.01,NNW,327,6.0,7.0,61,0.00,,---,0.00,VWS V14.01,2013-07-18 03:07:00,
2013-07-17 20:12:00,67.1,53.2,30.05,North,356,2.0,7.0,61,0.00,,---,0.00,VWS V14.01,2013-07-18 03:12:00,
2013-07-17 20:17:00,66.4,53.4,30.03,NNW,339,4.0,7.0,63,0.00,,---,0.00,VWS V14.01,2013-07-18 03:17:00,
2013-07-17 20:22:00,66.0,53.1,30.01,NNW,333,0.0,7.0,63,0.00,,---,0.00,VWS V14.01,2013-07-18 03:22:00,
2013-07-17 20:27:00,65.6,53.1,30.02,North,357,4.0,7.0,64,0.00,,---,0.00,VWS V14.01,2013-07-18 03:27:00,
2013-07-17 20:32:00,65.1,53.1,30.03,NNW,343,0.0,4.0,65,0.00,,---,0.00,VWS V14.01,2013-07-18 03:32:00,
2013-07-17 20:37:00,64.8,52.8,30.02,NNW,347,3.0,7.0,65,0.00,,---,0.00,VWS V14.01,2013-07-18 03:37:00,
2013-07-17 20:43:00,64.3,52.3,30.01,NNW,347,1.0,7.0,65,0.00,,---,0.00,VWS V14.01,2013-07-18 03:43:00,
2013-07-17 20:48:00,64.0,52.4,30.01,NNW,347,1.0,7.0,66,0.00,,---,0.00,VWS V14.01,2013-07-18 03:48:00,
2013-07-17 20:53:00,63.5,52.4,30.03,North,357,4.0,7.0,67,0.00,,---,0.00,VWS V14.01,2013-07-18 03:53:00,
2013-07-17 20:58:00,63.2,52.5,30.02,North,354,2.0,7.0,68,0.00,,---,0.00,VWS V14.01,2013-07-18 03:58:00,
2013-07-17 21:01:00,63.0,52.3,30.04,North,355,1.0,4.0,68,0.00,,---,0.00,VWS V14.01,2013-07-18 04:01:00,
2013-07-17 21:02:00,62.9,51.8,30.01,North,354,5.0,5.0,67,0.00,,---,0.00,VWS V14.01,2013-07-18 04:02:00,
2013-07-17 21:07:00,62.7,52.0,30.02,NNW,348,1.0,5.0,68,0.00,,---,0.00,VWS V14.01,2013-07-18 04:07:00,
2013-07-17 21:12:00,62.3,52.0,30.04,North,359,2.0,6.0,69,0.00,,---,0.00,VWS V14.01,2013-07-18 04:12:00,
2013-07-17 21:17:00,62.2,51.9,30.04,North,358,2.0,7.0,69,0.00,,---,0.00,VWS V14.01,2013-07-18 04:17:00,
2013-07-17 21:22:00,62.0,52.1,30.03,NNW,345,4.0,7.0,70,0.00,,---,0.00,VWS V14.01,2013-07-18 04:22:00,
2013-07-17 21:27:00,61.9,52.0,30.06,NNW,334,3.0,7.0,70,0.00,,---,0.00,VWS V14.01,2013-07-18 04:27:00,
2013-07-17 21:32:00,61.8,51.9,30.03,North,359,1.0,5.0,70,0.00,,---,0.00,VWS V14.01,2013-07-18 04:32:00,
2013-07-17 21:37:00,61.5,52.0,30.05,North,0,3.0,5.0,71,0.00,,---,0.00,VWS V14.01,2013-07-18 04:37:00,
2013-07-17 21:42:00,61.3,51.8,30.05,North,0,1.0,5.0,71,0.00,,---,0.00,VWS V14.01,2013-07-18 04:42:00,
2013-07-17 21:47:00,61.2,52.1,30.06,NNW,345,0.0,5.0,72,0.00,,---,0.00,VWS V14.01,2013-07-18 04:47:00,
2013-07-17 21:53:00,61.0,51.9,30.07,North,0,2.0,5.0,72,0.00,,---,0.00,VWS V14.01,2013-07-18 04:53:00,
2013-07-17 21:58:00,60.8,51.7,30.03,North,0,1.0,5.0,72,0.00,,---,0.00,VWS V14.01,2013-07-18 04:58:00,
2013-07-17 22:03:00,60.7,52.0,30.05,North,358,3.0,3.0,73,0.00,,---,0.00,VWS V14.01,2013-07-18 05:03:00,
2013-07-17 22:08:00,60.5,51.4,30.06,North,358,1.0,3.0,72,0.00,,---,0.00,VWS V14.01,2013-07-18 05:08:00,
2013-07-17 22:13:00,60.3,51.6,30.03,North,358,3.0,4.0,73,0.00,,---,0.00,VWS V14.01,2013-07-18 05:13:00,
2013-07-17 22:18:00,60.1,51.4,30.04,NNW,342,2.0,4.0,73,0.00,,---,0.00,VWS V14.01,2013-07-18 05:18:00,
2013-07-17 22:23:00,60.2,51.5,30.05,NNW,345,3.0,5.0,73,0.00,,---,0.00,VWS V14.01,2013-07-18 05:23:00,
2013-07-17 22:28:00,60.0,51.3,30.06,NNW,348,2.0,5.0,73,0.00,,---,0.00,VWS V14.01,2013-07-18 05:28:00,
2013-07-17 22:33:00,59.8,51.5,30.05,North,350,2.0,5.0,74,0.00,,---,0.00,VWS V14.01,2013-07-18 05:33:00,
2013-07-17 22:38:00,59.7,51.4,30.05,North,349,3.0,6.0,74,0.00,,---,0.00,VWS V14.01,2013-07-18 05:38:00,
2013-07-17 22:43:00,59.6,51.3,30.07,NNW,338,2.0,6.0,74,0.00,,---,0.00,VWS V14.01,2013-07-18 05:43:00,
2013-07-17 22:48:00,59.5,51.6,30.03,NNW,337,4.0,6.0,75,0.00,,---,0.00,VWS V14.01,2013-07-18 05:48:00,
2013-07-17 22:53:00,59.1,50.8,30.04,North,355,2.0,6.0,74,0.00,,---,0.00,VWS V14.01,2013-07-18 05:53:00,
2013-07-17 22:58:00,58.8,51.3,30.06,NNW,328,1.0,6.0,76,0.00,,---,0.00,VWS V14.01,2013-07-18 05:58:00,
2013-07-17 23:03:00,58.6,51.1,30.05,North,354,3.0,5.0,76,0.00,,---,0.00,VWS V14.01,2013-07-18 06:03:00,
2013-07-17 23:08:00,58.3,51.1,30.04,NNW,335,4.0,5.0,77,0.00,,---,0.00,VWS V14.01,2013-07-18 06:08:00,
2013-07-17 23:13:00,58.0,50.8,30.05,NNW,337,5.0,6.0,77,0.00,,---,0.00,VWS V14.01,2013-07-18 06:13:00,
2013-07-17 23:18:00,57.9,51.1,30.05,NNW,339,2.0,7.0,78,0.00,,---,0.00,VWS V14.01,2013-07-18 06:18:00,
2013-07-17 23:24:00,57.7,51.2,30.05,North,352,3.0,7.0,79,0.00,,---,0.00,VWS V14.01,2013-07-18 06:24:00,
2013-07-17 23:29:00,57.3,51.2,30.04,North,353,3.0,7.0,80,0.00,,---,0.00,VWS V14.01,2013-07-18 06:29:00,
2013-07-17 23:34:00,57.2,51.1,30.09,North,349,4.0,6.0,80,0.00,,---,0.00,VWS V14.01,2013-07-18 06:34:00,
2013-07-17 23:39:00,56.8,51.0,30.05,North,355,3.0,6.0,81,0.00,,---,0.00,VWS V14.01,2013-07-18 06:39:00,
2013-07-17 23:44:00,56.7,51.3,30.07,North,350,4.0,6.0,82,0.00,,---,0.00,VWS V14.01,2013-07-18 06:44:00,
2013-07-17 23:49:00,56.6,51.2,30.05,North,352,2.0,6.0,82,0.00,,---,0.00,VWS V14.01,2013-07-18 06:49:00,
2013-07-17 23:54:00,56.6,51.2,30.05,North,350,2.0,7.0,82,0.00,,---,0.00,VWS V14.01,2013-07-18 06:54:00,
2013-07-17 23:59:00,56.4,51.0,30.05,NNW,346,3.0,7.0,82,0.00,,---,0.00,VWS V14.01,2013-07-18 06:59:00,